Regional Weather Roundup
Issued by NWS

Home | Current Version | Previous Version | Text Only | Print | Product List | Glossary On
Versions: 1 2 3 4 5 6 7 8 9 10 11 12 13 14 15 16 17 18 19 20 21 22 23 24 25 26 27
000
ASPQ40 PGUM 252212
RWRPQ
WEATHER ROUNDUP FOR THE MARIANAS AND MICRONESIA
NATIONAL WEATHER SERVICE TIYAN GU
800 AM CHST WED APR 26 2017

GUZ001>004-252300-
MARIANA ISLANDS-

CITY           SKY/WX    TMP DP  RH WIND       PRES   REMARKS
GUAM AIRPORT   PTSUNNY   77  75  94 E7        29.95R
ANDERSEN AFB   CLOUDY    75  73  94 E8        29.96R
ROTA AIRPORT   CLOUDY    75  73  94 E3        29.94R
TINIAN AP      PTSUNNY   77  75  94 E3        29.93R
SAIPAN AP      CLOUDY    81  75  83 E14       29.94R

$$

PMZ161-252300-
REPUBLIC OF PALAU-

CITY           SKY/WX    TMP DP  RH WIND       PRES   REMARKS
KOROR AP       LGT RAIN  79  77  94 CALM      29.79R
KOROR WSO      PTSUNNY   81  77  89 SW3       29.80R

$$

PMZ171>174-252300-
FEDERATED STATES OF MICRONESIA-

CITY           SKY/WX    TMP DP  RH WIND       PRES   REMARKS
YAP AIRPORT    NOT AVBL
CHUUK AP       LGT RAIN  84  77  79 E8        29.88R HX  94
POHNPEI AP     NOT AVBL
POHNPEI WSO    PTSUNNY   84  77  79 NE6       29.91R HX  94
KOSRAE AP      PTSUNNY   84  75  74 NE15      29.96R HX  92

$$

PMZ181-252300-
REPUBLIC OF THE MARSHALL ISLANDS-

CITY           SKY/WX    TMP DP  RH WIND       PRES   REMARKS
KWAJALEIN AP   MOSUNNY   86  73  66 NE15      29.90S HX  93
MAJURO AP      NOT AVBL
MAJURO WSO     CLOUDY    86  77  74 E12       29.86S HX  97

$$





USA.gov is the U.S. government's official web portal to all federal, state and local government web resources and services.